| time (UTC) | temp F | wind direction | speed knots | gust knots | rain 1hr in | rain 24hr in | rain mn in | humidity % | barometer mb |
| 20260901141019 | 72 | 225 | 2.6 | 6.1 | 0.00 | 0.02 | 0.01 | 55 | 1020.8 |
| 20260901141017 | 48 | 276 | 1.7 | 2.6 | 0.00 | 0.20 | 0.20 | 66 | 1103.4 |
| 20260901140017 | 74 | 293 | 3.5 | 7.8 | 0.00 | 0.02 | 0.01 | 55 | 1021.0 |
| 20260901135017 | 47 | 282 | 1.7 | 2.6 | 0.00 | 0.20 | 0.20 | 67 | 1104.7 |
| 20260901134017 | 70 | 315 | 0.9 | 4.3 | 0.00 | 0.02 | 0.01 | 61 | 1020.9 |
| 20260901133017 | 70 | 315 | 0.9 | 4.3 | 0.00 | 0.02 | 0.01 | 60 | 1020.9 |
| 20260901132022 | 71 | 338 | 1.7 | 7.8 | 0.00 | 0.02 | 0.01 | 59 | 1020.9 |
| 20260901132017 | 44 | 292 | 1.7 | 1.7 | 0.00 | 0.20 | 0.20 | 69 | 1106.5 |
| 20260901131037 | 43 | 295 | 1.7 | 1.7 | 0.00 | 0.20 | 0.20 | 69 | 1107.1 |
| 20260901130017 | 43 | 298 | 1.7 | 1.7 | 0.00 | 0.20 | 0.20 | 70 | 1107.7 |
| 20260901125017 | 73 | 293 | 3.5 | 8.7 | 0.00 | 0.02 | 0.01 | 59 | 1021.4 |
| 20260901124037 | 41 | 304 | 1.7 | 1.7 | 0.00 | 0.20 | 0.20 | 71 | 1108.9 |
| 20260901123017 | 40 | 307 | 0.9 | 1.7 | 0.00 | 0.20 | 0.20 | 71 | 1109.4 |
| 20260901122017 | 69 | 293 | 4.3 | 10.4 | 0.00 | 0.02 | 0.01 | 63 | 1021.2 |
| 20260901121038 | 39 | 312 | 0.9 | 1.7 | 0.00 | 0.20 | 0.20 | 72 | 1110.5 |
| 20260901121018 | 70 | 338 | 1.7 | 8.7 | 0.00 | 0.02 | 0.01 | 62 | 1021.2 |
| 20260901120037 | 38 | 315 | 0.9 | 1.7 | 0.00 | 0.20 | 0.20 | 72 | 1111.0 |
| 20260901115017 | 37 | 317 | 0.9 | 0.9 | 0.00 | 0.20 | 0.20 | 73 | 1111.5 |
| 20260901114017 | 37 | 320 | 0.9 | 0.9 | 0.00 | 0.20 | 0.20 | 73 | 1112.0 |
| 20260901113017 | 70 | 248 | 4.3 | 8.7 | 0.00 | 0.02 | 0.01 | 63 | 1021.3 |
| 20260901112057 | 67 | 293 | 4.3 | 9.6 | 0.00 | 0.02 | 0.01 | 66 | 1021.3 |
| 20260901112017 | 35 | 325 | 0.9 | 0.9 | 0.00 | 0.20 | 0.20 | 74 | 1113.0 |
| 20260901111017 | 68 | 315 | 5.2 | 11.3 | 0.00 | 0.02 | 0.01 | 66 | 1021.4 |
| 20260901110037 | 69 | 293 | 4.3 | 10.4 | 0.00 | 0.02 | 0.01 | 66 | 1021.4 |
| 20260901105017 | 68 | 270 | 4.3 | 12.2 | 0.00 | 0.02 | 0.01 | 66 | 1021.3 |
| 20260901104017 | 33 | 333 | 0.9 | 0.9 | 0.00 | 0.20 | 0.20 | 76 | 1114.7 |
| 20260901103017 | 66 | 293 | 4.3 | 10.4 | 0.00 | 0.02 | 0.01 | 69 | 1021.2 |
| 20260901102017 | 32 | 337 | 0.9 | 0.9 | 0.00 | 0.20 | 0.20 | 76 | 1115.5 |
| 20260901101017 | 32 | 339 | 0.9 | 0.9 | 0.00 | 0.20 | 0.20 | 77 | 1115.9 |
| 20260901100017 | 32 | 341 | 0.9 | 0.9 | 0.00 | 0.20 | 0.20 | 77 | 1116.2 |
| 20260901095017 | 64 | 293 | 3.5 | 7.8 | 0.00 | 0.02 | 0.01 | 74 | 1021.3 |
| 20260901094017 | 31 | 344 | 0.0 | 0.9 | 0.00 | 0.20 | 0.20 | 77 | 1116.9 |
| 20260901093017 | 65 | 270 | 3.5 | 7.8 | 0.00 | 0.02 | 0.01 | 74 | 1021.5 |
| 20260901092037 | 64 | 293 | 2.6 | 7.8 | 0.00 | 0.02 | 0.01 | 74 | 1021.5 |
| 20260901091017 | 30 | 349 | 0.0 | 0.0 | 0.00 | 0.20 | 0.20 | 78 | 1117.8 |
| 20260901090017 | 30 | 350 | 0.0 | 0.0 | 0.00 | 0.20 | 0.20 | 78 | 1118.0 |
| 20260901085037 | 64 | 270 | 2.6 | 7.0 | 0.00 | 0.02 | 0.01 | 78 | 1021.4 |
| 20260901084017 | 63 | 293 | 2.6 | 7.0 | 0.00 | 0.02 | 0.01 | 78 | 1021.2 |
| 20260901083017 | 63 | 270 | 3.5 | 7.0 | 0.00 | 0.02 | 0.01 | 79 | 1021.3 |
| 20260901082016 | 30 | 355 | 0.0 | 0.0 | 0.00 | 0.20 | 0.20 | 79 | 1118.9 |
| 20260901081037 | 64 | 293 | 1.7 | 7.0 | 0.00 | 0.02 | 0.01 | 80 | 1021.2 |
| 20260901080017 | 30 | 356 | 0.0 | 0.0 | 0.00 | 0.20 | 0.20 | 79 | 1119.3 |
| 20260901075017 | 30 | 357 | 0.0 | 0.0 | 0.00 | 0.20 | 0.20 | 80 | 1119.4 |
| 20260901074017 | 30 | 358 | 0.0 | 0.0 | 0.00 | 0.20 | 0.20 | 80 | 1119.5 |
| 20260901073017 | 31 | 358 | 0.0 | 0.0 | 0.00 | 0.20 | 0.20 | 80 | 1119.7 |
| 20260901072037 | 62 | 293 | 0.9 | 2.6 | 0.00 | 0.02 | 0.01 | 86 | 1021.0 |
| 20260901071017 | 31 | 359 | 0.0 | 0.0 | 0.00 | 0.20 | 0.20 | 80 | 1119.8 |
| 20260901070017 | 31 | 360 | 0.0 | 0.0 | 0.00 | 0.20 | 0.20 | 80 | 1119.9 |
| 20260901065017 | 32 | 360 | 0.0 | 0.0 | 0.00 | 0.20 | 0.20 | 80 | 1119.9 |
| 20260901064037 | 32 | 360 | 0.0 | 0.0 | 0.00 | 0.20 | 0.20 | 80 | 1120.0 |
| 20260901063017 | 33 | 360 | 0.0 | 0.0 | 0.00 | 0.20 | 0.20 | 80 | 1120.0 |
| 20260901062036 | 58 | 0.0 | 0.9 | 0.00 | 0.02 | 0.01 | 91 | 1020.8 | |
| 20260901061517 | 61 | 305 | 1.7 | 1.7 | 0.00 | 0.20 | 0.20 | 71 | 1109.1 |
| 20260901061016 | 58 | 293 | 0.9 | 3.5 | 0.00 | 0.02 | 0.01 | 92 | 1020.9 |
| 20260901060517 | 61 | 302 | 1.7 | 1.7 | 0.00 | 0.20 | 0.20 | 70 | 1108.5 |
| 20260901060016 | 58 | 293 | 0.9 | 1.7 | 0.00 | 0.02 | 0.01 | 92 | 1020.7 |
| 20260901055537 | 62 | 299 | 1.7 | 1.7 | 0.00 | 0.20 | 0.20 | 70 | 1107.9 |
| 20260901055036 | 57 | 293 | 0.9 | 2.6 | 0.00 | 0.02 | 0.01 | 92 | 1020.8 |
| 20260901054517 | 63 | 296 | 1.7 | 1.7 | 0.00 | 0.20 | 0.20 | 69 | 1107.3 |
| 20260901054037 | 57 | 293 | 0.9 | 3.5 | 0.00 | 0.02 | 0.01 | 92 | 1020.7 |
| 20260901053517 | 63 | 293 | 1.7 | 1.7 | 0.00 | 0.20 | 0.20 | 69 | 1106.7 |
| 20260901053016 | 57 | 293 | 0.9 | 2.6 | 0.00 | 0.02 | 0.01 | 92 | 1020.7 |
| 20260901052517 | 64 | 290 | 1.7 | 1.7 | 0.00 | 0.20 | 0.20 | 68 | 1106.1 |
| 20260901052016 | 57 | 0.0 | 2.6 | 0.00 | 0.02 | 0.01 | 91 | 1020.5 | |
| 20260901051518 | 65 | 287 | 1.7 | 1.7 | 0.00 | 0.20 | 0.20 | 68 | 1105.5 |
| 20260901051016 | 56 | 0.0 | 2.6 | 0.00 | 0.02 | 0.01 | 91 | 1020.7 | |
| 20260901050517 | 65 | 284 | 1.7 | 2.6 | 0.00 | 0.20 | 0.20 | 67 | 1104.9 |
| 20260901050016 | 56 | 270 | 0.9 | 3.5 | 0.00 | 0.02 | 0.01 | 91 | 1020.5 |
| 20260901045517 | 66 | 280 | 1.7 | 2.6 | 0.00 | 0.20 | 0.20 | 67 | 1104.2 |
| 20260901045038 | 56 | 225 | 2.6 | 4.3 | 0.00 | 0.02 | 0.01 | 91 | 1020.5 |
| 20260901044517 | 66 | 277 | 1.7 | 2.6 | 0.00 | 0.20 | 0.20 | 66 | 1103.6 |
| 20260901044016 | 57 | 225 | 3.5 | 7.0 | 0.00 | 0.02 | 0.01 | 91 | 1020.5 |
| 20260901043537 | 67 | 274 | 1.7 | 2.6 | 0.00 | 0.20 | 0.20 | 66 | 1102.9 |
| 20260901043016 | 57 | 203 | 4.3 | 8.7 | 0.00 | 0.02 | 0.01 | 91 | 1020.4 |
| 20260901042557 | 67 | 270 | 1.7 | 2.6 | 0.00 | 0.20 | 0.20 | 65 | 1102.3 |
| 20260901042017 | 57 | 203 | 3.5 | 6.1 | 0.00 | 0.02 | 0.01 | 91 | 1020.4 |
| 20260901041517 | 68 | 267 | 2.6 | 2.6 | 0.00 | 0.20 | 0.20 | 64 | 1101.6 |
| 20260901041016 | 57 | 225 | 2.6 | 4.3 | 0.00 | 0.02 | 0.01 | 91 | 1020.4 |
| 20260901040517 | 68 | 263 | 2.6 | 2.6 | 0.00 | 0.20 | 0.20 | 64 | 1100.9 |
| 20260901040016 | 57 | 203 | 2.6 | 4.3 | 0.00 | 0.04 | 0.01 | 91 | 1020.4 |
| 20260901035517 | 68 | 260 | 2.6 | 2.6 | 0.00 | 0.20 | 0.20 | 63 | 1100.2 |
| 20260901035016 | 57 | 225 | 2.6 | 5.2 | 0.00 | 0.07 | 0.01 | 91 | 1020.4 |
| 20260901034517 | 69 | 256 | 2.6 | 2.6 | 0.00 | 0.20 | 0.20 | 63 | 1099.5 |
| 20260901034016 | 57 | 203 | 2.6 | 4.3 | 0.00 | 0.08 | 0.01 | 91 | 1020.3 |
| 20260901033517 | 69 | 253 | 2.6 | 3.5 | 0.00 | 0.20 | 0.20 | 62 | 1098.8 |
| 20260901033016 | 57 | 180 | 2.6 | 6.1 | 0.00 | 0.24 | 0.01 | 91 | 1020.3 |
| 20260901032517 | 69 | 249 | 2.6 | 3.5 | 0.00 | 0.20 | 0.20 | 62 | 1098.1 |
| 20260901032056 | 57 | 203 | 2.6 | 4.3 | 0.00 | 0.24 | 0.01 | 91 | 1020.2 |
| 20260901031517 | 70 | 246 | 2.6 | 3.5 | 0.00 | 0.20 | 0.20 | 61 | 1097.4 |
| 20260901031016 | 57 | 203 | 1.7 | 3.5 | 0.00 | 0.24 | 0.01 | 91 | 1020.2 |
| 20260901030517 | 70 | 242 | 2.6 | 3.5 | 0.00 | 0.20 | 0.20 | 60 | 1096.6 |
| 20260901030016 | 57 | 158 | 1.7 | 4.3 | 0.00 | 0.24 | 0.01 | 91 | 1020.2 |
| 20260901025557 | 70 | 238 | 2.6 | 3.5 | 0.00 | 0.20 | 0.20 | 60 | 1095.9 |
| 20260901025016 | 57 | 180 | 2.6 | 5.2 | 0.00 | 0.24 | 0.01 | 91 | 1020.2 |
| 20260901024517 | 70 | 234 | 2.6 | 3.5 | 0.00 | 0.20 | 0.20 | 59 | 1095.2 |
| 20260901024036 | 57 | 180 | 3.5 | 7.0 | 0.00 | 0.24 | 0.01 | 91 | 1020.1 |
| 20260901023517 | 70 | 231 | 3.5 | 3.5 | 0.00 | 0.20 | 0.20 | 58 | 1094.4 |
| 20260901023036 | 57 | 180 | 3.5 | 5.2 | 0.00 | 0.24 | 0.01 | 91 | 1020.2 |
| 20260901022517 | 70 | 227 | 3.5 | 3.5 | 0.00 | 0.20 | 0.20 | 58 | 1093.7 |
| 20260901022016 | 57 | 180 | 2.6 | 5.2 | 0.00 | 0.24 | 0.01 | 91 | 1020.2 |
| 20260901021517 | 70 | 223 | 3.5 | 4.3 | 0.00 | 0.20 | 0.20 | 57 | 1092.9 |
| 20260901021036 | 57 | 158 | 2.6 | 5.2 | 0.00 | 0.24 | 0.01 | 91 | 1020.1 |
| 20260901020517 | 70 | 219 | 3.5 | 4.3 | 0.00 | 0.20 | 0.20 | 57 | 1092.2 |
| 20260901020016 | 57 | 158 | 3.5 | 6.1 | 0.00 | 0.24 | 0.01 | 91 | 1020.0 |
| 20260901015517 | 70 | 215 | 3.5 | 4.3 | 0.00 | 0.20 | 0.20 | 56 | 1091.4 |
| 20260901015018 | 57 | 158 | 2.6 | 5.2 | 0.00 | 0.24 | 0.01 | 90 | 1019.9 |
| 20260901014517 | 70 | 212 | 3.5 | 4.3 | 0.01 | 0.20 | 0.20 | 55 | 1090.6 |
| 20260901014018 | 58 | 158 | 2.6 | 5.2 | 0.00 | 0.24 | 0.01 | 90 | 1019.7 |
| 20260901013517 | 70 | 208 | 3.5 | 4.3 | 0.02 | 0.20 | 0.20 | 55 | 1089.9 |
| 20260901013018 | 57 | 158 | 2.6 | 5.2 | 0.00 | 0.24 | 0.01 | 90 | 1019.7 |
| 20260901012557 | 69 | 204 | 3.5 | 4.3 | 0.03 | 0.20 | 0.20 | 54 | 1089.1 |
| 20260901012037 | 57 | 158 | 2.6 | 7.0 | 0.00 | 0.24 | 0.01 | 90 | 1019.5 |
| 20260901011517 | 69 | 200 | 3.5 | 4.3 | 0.05 | 0.20 | 0.20 | 53 | 1088.3 |
| 20260901011017 | 57 | 180 | 3.5 | 5.2 | 0.00 | 0.24 | 0.01 | 90 | 1019.6 |
| 20260901010517 | 69 | 196 | 4.3 | 4.3 | 0.06 | 0.20 | 0.20 | 53 | 1087.6 |
| 20260901010037 | 57 | 158 | 2.6 | 4.3 | 0.00 | 0.24 | 0.01 | 90 | 1019.5 |
| 20260901005517 | 69 | 192 | 4.3 | 5.2 | 0.07 | 0.20 | 0.20 | 52 | 1086.8 |
| 20260901005018 | 58 | 158 | 1.7 | 3.5 | 0.00 | 0.24 | 0.01 | 90 | 1019.2 |
| 20260901004517 | 68 | 188 | 4.3 | 5.2 | 0.07 | 0.20 | 0.19 | 51 | 1086.0 |
| 20260901004016 | 57 | 158 | 1.7 | 3.5 | 0.00 | 0.24 | 0.01 | 89 | 1019.1 |
| 20260901003517 | 68 | 184 | 4.3 | 5.2 | 0.07 | 0.20 | 0.18 | 51 | 1085.2 |
| 20260901003018 | 57 | 158 | 1.7 | 3.5 | 0.00 | 0.24 | 0.01 | 89 | 1019.2 |
| 20260901002517 | 67 | 180 | 4.3 | 5.2 | 0.07 | 0.20 | 0.17 | 50 | 1084.5 |
| 20260901002018 | 57 | 203 | 0.9 | 2.6 | 0.00 | 0.24 | 0.01 | 89 | 1019.1 |
| 20260901001517 | 67 | 176 | 4.3 | 5.2 | 0.06 | 0.20 | 0.15 | 49 | 1083.7 |
| 20260901001017 | 57 | 225 | 1.7 | 4.3 | 0.00 | 0.24 | 0.01 | 88 | 1019.1 |
| 20260901000517 | 66 | 173 | 4.3 | 5.2 | 0.06 | 0.20 | 0.14 | 49 | 1082.9 |
| 20260901000017 | 57 | 225 | 0.9 | 3.5 | 0.00 | 0.24 | 0.01 | 88 | 1019.0 |
| 20260831235517 | 66 | 169 | 4.3 | 5.2 | 0.06 | 0.20 | 0.13 | 48 | 1082.1 |
| 20260831235017 | 58 | 225 | 0.9 | 2.6 | 0.01 | 0.24 | 0.01 | 88 | 1019.2 |
| 20260831234537 | 65 | 165 | 4.3 | 6.1 | 0.07 | 0.20 | 0.12 | 47 | 1081.4 |
| 20260831234017 | 58 | 225 | 1.7 | 3.5 | 0.01 | 0.24 | 0.01 | 88 | 1019.1 |
| 20260831233517 | 65 | 161 | 5.2 | 6.1 | 0.07 | 0.20 | 0.11 | 47 | 1080.6 |
| 20260831233017 | 58 | 225 | 3.5 | 5.2 | 0.01 | 0.24 | 0.01 | 88 | 1019.1 |
| 20260831232517 | 64 | 157 | 5.2 | 6.1 | 0.07 | 0.20 | 0.10 | 46 | 1079.8 |
| 20260831232017 | 58 | 225 | 1.7 | 3.5 | 0.01 | 0.24 | 0.01 | 87 | 1019.0 |
| 20260831231517 | 64 | 153 | 5.2 | 6.1 | 0.07 | 0.20 | 0.09 | 45 | 1079.0 |
| 20260831231017 | 59 | 225 | 0.9 | 2.6 | 0.01 | 0.24 | 0.01 | 88 | 1019.1 |
| 20260831230517 | 63 | 149 | 5.2 | 6.1 | 0.07 | 0.20 | 0.08 | 45 | 1078.3 |
| 20260831230037 | 59 | 225 | 2.6 | 5.2 | 0.01 | 0.24 | 0.01 | 87 | 1019.1 |
| 20260831225517 | 62 | 145 | 5.2 | 6.1 | 0.07 | 0.20 | 0.07 | 44 | 1077.5 |
| 20260831225017 | 59 | 225 | 4.3 | 7.8 | 0.00 | 0.23 | 0.00 | 87 | 1019.3 |
| 20260831224557 | 62 | 141 | 5.2 | 6.1 | 0.05 | 0.20 | 0.05 | 44 | 1076.8 |
| 20260831224017 | 59 | 248 | 2.6 | 5.2 | 0.01 | 0.23 | 0.00 | 87 | 1019.4 |
| 20260831223517 | 61 | 138 | 5.2 | 6.1 | 0.04 | 0.20 | 0.04 | 43 | 1076.0 |
| 20260831223017 | 59 | 225 | 3.5 | 7.0 | 0.01 | 0.23 | 0.00 | 86 | 1019.3 |
| 20260831222517 | 60 | 134 | 5.2 | 7.0 | 0.03 | 0.20 | 0.03 | 42 | 1075.2 |
| 20260831222017 | 60 | 225 | 3.5 | 7.0 | 0.01 | 0.23 | 0.00 | 86 | 1019.3 |
| 20260831221517 | 59 | 130 | 5.2 | 7.0 | 0.02 | 0.20 | 0.02 | 42 | 1074.5 |
| 20260831221021 | 60 | 203 | 2.6 | 6.1 | 0.01 | 0.23 | 0.00 | 86 | 1019.2 |
| 20260831220517 | 59 | 126 | 5.2 | 7.0 | 0.01 | 0.20 | 0.01 | 41 | 1073.8 |
| 20260831220017 | 60 | 248 | 1.7 | 3.5 | 0.01 | 0.23 | 0.23 | 85 | 1019.0 |
| 20260831215518 | 58 | 122 | 6.1 | 7.0 | 0.00 | 0.20 | 0.20 | 40 | 1073.0 |
| 20260831215036 | 61 | 315 | 1.7 | 3.5 | 0.01 | 0.23 | 0.23 | 84 | 1019.2 |
| 20260831214557 | 57 | 119 | 6.1 | 7.0 | 0.00 | 0.20 | 0.20 | 40 | 1072.3 |
| 20260831214036 | 62 | 293 | 2.6 | 4.3 | 0.00 | 0.22 | 0.22 | 82 | 1019.2 |
| 20260831213517 | 56 | 115 | 6.1 | 7.0 | 0.00 | 0.20 | 0.20 | 39 | 1071.6 |
| 20260831213036 | 62 | 270 | 2.6 | 7.0 | 0.00 | 0.22 | 0.22 | 80 | 1019.0 |
| 20260831212517 | 55 | 111 | 6.1 | 7.0 | 0.00 | 0.20 | 0.20 | 39 | 1070.8 |
| 20260831212016 | 62 | 270 | 2.6 | 7.0 | 0.00 | 0.22 | 0.22 | 79 | 1018.7 |
| 20260831211517 | 54 | 108 | 6.1 | 7.0 | 0.00 | 0.20 | 0.20 | 38 | 1070.1 |
| 20260831211016 | 62 | 225 | 4.3 | 9.6 | 0.00 | 0.22 | 0.22 | 79 | 1018.5 |
| 20260831210517 | 54 | 104 | 6.1 | 7.8 | 0.00 | 0.20 | 0.20 | 37 | 1069.4 |
| 20260831210016 | 62 | 225 | 4.3 | 9.6 | 0.00 | 0.22 | 0.22 | 78 | 1018.6 |
| 20260831205517 | 53 | 101 | 6.1 | 7.8 | 0.00 | 0.20 | 0.20 | 37 | 1068.7 |
| 20260831205016 | 62 | 270 | 1.7 | 5.2 | 0.00 | 0.22 | 0.22 | 76 | 1018.4 |
| 20260831204517 | 52 | 97 | 6.1 | 7.8 | 0.00 | 0.20 | 0.20 | 36 | 1068.0 |
| 20260831204016 | 62 | 248 | 4.3 | 7.8 | 0.00 | 0.22 | 0.22 | 75 | 1018.2 |
| 20260831203517 | 51 | 94 | 6.1 | 7.8 | 0.00 | 0.20 | 0.20 | 36 | 1067.3 |
| 20260831203016 | 63 | 248 | 3.5 | 7.8 | 0.00 | 0.22 | 0.22 | 75 | 1018.3 |
| 20260831202517 | 50 | 90 | 6.1 | 7.8 | 0.00 | 0.20 | 0.20 | 35 | 1066.6 |
| 20260831202016 | 63 | 225 | 5.2 | 10.4 | 0.00 | 0.22 | 0.22 | 74 | 1018.1 |
| 20260831201538 | 49 | 87 | 7.0 | 7.8 | 0.00 | 0.20 | 0.20 | 34 | 1066.0 |
| 20260831201016 | 63 | 225 | 4.3 | 7.8 | 0.00 | 0.22 | 0.22 | 74 | 1017.9 |
| 20260831200517 | 48 | 84 | 7.0 | 7.8 | 0.00 | 0.20 | 0.20 | 34 | 1065.3 |
| 20260831200016 | 63 | 270 | 5.2 | 10.4 | 0.00 | 0.22 | 0.22 | 73 | 1017.5 |
| 20260831195537 | 47 | 80 | 7.0 | 7.8 | 0.00 | 0.20 | 0.20 | 33 | 1064.7 |
| 20260831195016 | 63 | 225 | 6.1 | 11.3 | 0.00 | 0.22 | 0.22 | 72 | 1017.4 |
| 20260831194537 | 47 | 77 | 7.0 | 7.8 | 0.00 | 0.20 | 0.20 | 33 | 1064.0 |
| 20260831194016 | 64 | 225 | 8.7 | 14.8 | 0.00 | 0.22 | 0.22 | 71 | 1017.3 |
| 20260831193517 | 46 | 74 | 7.0 | 8.7 | 0.00 | 0.20 | 0.20 | 32 | 1063.4 |
| 20260831193016 | 64 | 225 | 7.8 | 14.8 | 0.00 | 0.22 | 0.22 | 68 | 1017.0 |
| 20260831192518 | 45 | 71 | 7.0 | 8.7 | 0.00 | 0.20 | 0.20 | 32 | 1062.8 |
| 20260831192016 | 65 | 225 | 6.1 | 10.4 | 0.00 | 0.22 | 0.22 | 65 | 1017.0 |
| 20260831191517 | 44 | 68 | 7.0 | 8.7 | 0.00 | 0.20 | 0.20 | 31 | 1062.2 |
| 20260831191017 | 65 | 225 | 7.0 | 17.4 | 0.00 | 0.22 | 0.22 | 64 | 1017.1 |
| 20260831190517 | 43 | 65 | 7.0 | 8.7 | 0.00 | 0.20 | 0.20 | 31 | 1061.6 |
| 20260831190017 | 66 | 248 | 7.0 | 13.9 | 0.00 | 0.22 | 0.22 | 62 | 1017.1 |
| 20260831185517 | 42 | 62 | 7.0 | 8.7 | 0.00 | 0.20 | 0.20 | 30 | 1061.0 |
| 20260831185017 | 67 | 225 | 9.6 | 16.5 | 0.00 | 0.22 | 0.22 | 61 | 1016.9 |
| 20260831184517 | 42 | 59 | 7.0 | 8.7 | 0.00 | 0.20 | 0.20 | 30 | 1060.4 |
| 20260831184017 | 68 | 248 | 8.7 | 13.9 | 0.00 | 0.22 | 0.22 | 60 | 1016.9 |
| 20260831183517 | 41 | 56 | 7.0 | 8.7 | 0.00 | 0.20 | 0.20 | 29 | 1059.8 |
| 20260831183017 | 68 | 225 | 7.8 | 15.6 | 0.00 | 0.22 | 0.22 | 59 | 1016.4 |
| 20260831182557 | 40 | 53 | 7.8 | 8.7 | 0.00 | 0.20 | 0.20 | 29 | 1059.3 |
| 20260831182017 | 68 | 225 | 6.1 | 13.0 | 0.00 | 0.22 | 0.22 | 59 | 1016.1 |
| 20260831181517 | 39 | 50 | 7.8 | 8.7 | 0.00 | 0.20 | 0.20 | 28 | 1058.7 |
| 20260831181036 | 68 | 225 | 7.0 | 14.8 | 0.00 | 0.22 | 0.22 | 58 | 1015.9 |
| 20260831180518 | 39 | 48 | 7.8 | 8.7 | 0.00 | 0.20 | 0.20 | 28 | 1058.2 |
| 20260831180037 | 69 | 225 | 7.0 | 14.8 | 0.00 | 0.22 | 0.22 | 57 | 1015.8 |
| 20260831175517 | 38 | 45 | 7.8 | 9.6 | 0.00 | 0.20 | 0.20 | 27 | 1057.7 |
| 20260831175018 | 69 | 225 | 7.8 | 12.2 | 0.00 | 0.22 | 0.22 | 57 | 1015.9 |
| 20260831174517 | 37 | 42 | 7.8 | 9.6 | 0.00 | 0.20 | 0.20 | 27 | 1057.2 |
| 20260831174017 | 69 | 270 | 6.1 | 12.2 | 0.00 | 0.22 | 0.22 | 57 | 1016.0 |
| 20260831173517 | 37 | 40 | 7.8 | 9.6 | 0.00 | 0.20 | 0.20 | 27 | 1056.7 |
| 20260831173016 | 69 | 225 | 7.0 | 13.0 | 0.00 | 0.22 | 0.22 | 57 | 1016.0 |
| 20260831172517 | 36 | 37 | 7.8 | 9.6 | 0.00 | 0.20 | 0.20 | 26 | 1056.2 |
| 20260831172016 | 69 | 225 | 5.2 | 10.4 | 0.00 | 0.22 | 0.22 | 57 | 1015.8 |
| 20260831171517 | 35 | 35 | 7.8 | 9.6 | 0.00 | 0.20 | 0.20 | 26 | 1055.7 |
| 20260831171016 | 70 | 225 | 6.1 | 11.3 | 0.00 | 0.22 | 0.22 | 56 | 1015.7 |
| 20260831170517 | 35 | 33 | 7.8 | 9.6 | 0.00 | 0.20 | 0.20 | 25 | 1055.3 |
| 20260831170037 | 70 | 225 | 5.2 | 12.2 | 0.00 | 0.22 | 0.22 | 56 | 1015.7 |
| 20260831165517 | 34 | 31 | 7.8 | 9.6 | 0.00 | 0.20 | 0.20 | 25 | 1054.8 |
| 20260831165016 | 70 | 270 | 6.1 | 9.6 | 0.00 | 0.22 | 0.22 | 57 | 1016.0 |
| 20260831164517 | 34 | 28 | 7.8 | 9.6 | 0.00 | 0.20 | 0.20 | 25 | 1054.4 |
| 20260831164017 | 72 | 248 | 7.0 | 13.9 | 0.00 | 0.22 | 0.22 | 55 | 1016.0 |
| 20260831163517 | 33 | 26 | 7.8 | 9.6 | 0.00 | 0.20 | 0.20 | 24 | 1054.0 |
| 20260831163017 | 72 | 225 | 4.3 | 7.8 | 0.00 | 0.22 | 0.22 | 56 | 1016.0 |
| 20260831162517 | 33 | 24 | 7.8 | 9.6 | 0.00 | 0.20 | 0.20 | 24 | 1053.6 |
| 20260831162017 | 73 | 248 | 4.3 | 7.8 | 0.00 | 0.22 | 0.22 | 56 | 1015.8 |
| 20260831161517 | 32 | 22 | 7.8 | 9.6 | 0.00 | 0.20 | 0.20 | 24 | 1053.2 |
| 20260831161016 | 72 | 203 | 6.1 | 11.3 | 0.00 | 0.22 | 0.22 | 56 | 1015.8 |
| 20260831160517 | 32 | 21 | 7.8 | 9.6 | 0.00 | 0.20 | 0.20 | 23 | 1052.8 |
| 20260831160016 | 72 | 225 | 6.1 | 11.3 | 0.00 | 0.22 | 0.22 | 55 | 1015.7 |
| 20260831155517 | 32 | 19 | 7.8 | 9.6 | 0.00 | 0.20 | 0.20 | 23 | 1052.5 |
| 20260831155016 | 73 | 248 | 5.2 | 10.4 | 0.00 | 0.22 | 0.22 | 55 | 1015.7 |
| 20260831154537 | 31 | 17 | 8.7 | 9.6 | 0.00 | 0.20 | 0.20 | 23 | 1052.1 |
| 20260831154117 | 73 | 225 | 7.8 | 15.6 | 0.00 | 0.22 | 0.22 | 53 | 1015.7 |
| 20260831153517 | 31 | 15 | 8.7 | 10.4 | 0.00 | 0.20 | 0.20 | 23 | 1051.8 |
| 20260831153017 | 73 | 270 | 7.0 | 11.3 | 0.00 | 0.22 | 0.22 | 54 | 1015.5 |
| 20260831152516 | 31 | 14 | 8.7 | 10.4 | 0.00 | 0.20 | 0.20 | 22 | 1051.5 |
| 20260831152018 | 74 | 225 | 7.8 | 16.5 | 0.00 | 0.22 | 0.22 | 52 | 1015.6 |
| 20260831151517 | 30 | 12 | 8.7 | 10.4 | 0.00 | 0.20 | 0.20 | 22 | 1051.2 |
| 20260831151016 | 74 | 225 | 7.0 | 13.0 | 0.00 | 0.22 | 0.22 | 51 | 1015.6 |
| 20260831150517 | 30 | 11 | 8.7 | 10.4 | 0.00 | 0.20 | 0.20 | 22 | 1051.0 |
| 20260831150016 | 74 | 203 | 7.0 | 17.4 | 0.00 | 0.22 | 0.22 | 52 | 1015.5 |
| 20260831145517 | 30 | 10 | 8.7 | 10.4 | 0.00 | 0.20 | 0.20 | 22 | 1050.7 |
| 20260831145016 | 73 | 225 | 9.6 | 18.2 | 0.00 | 0.22 | 0.22 | 52 | 1015.5 |
| 20260831144517 | 30 | 8 | 8.7 | 10.4 | 0.00 | 0.20 | 0.20 | 21 | 1050.4 |
| 20260831144016 | 74 | 270 | 7.8 | 12.2 | 0.00 | 0.22 | 0.22 | 54 | 1015.5 |
| 20260831143517 | 30 | 7 | 8.7 | 10.4 | 0.00 | 0.20 | 0.20 | 21 | 1050.2 |
| 20260831143016 | 75 | 225 | 7.8 | 12.2 | 0.00 | 0.22 | 0.22 | 54 | 1015.6 |
| 20260831142517 | 30 | 6 | 8.7 | 10.4 | 0.00 | 0.20 | 0.20 | 21 | 1050.0 |
| 20260831142016 | 75 | 225 | 6.1 | 10.4 | 0.00 | 0.22 | 0.22 | 56 | 1015.7 |
| 20260831141537 | 30 | 5 | 8.7 | 10.4 | 0.00 | 0.20 | 0.20 | 21 | 1049.8 |